Weather History for Shirley, NY

Change the Weather History Date:

Friday, February 14, 2014

  Actual Average (KISP) Record (KISP)
Temperature  
Mean Temperature 36 °F 32 °F  
Max Temperature 41 °F 40 °F 60 °F (1990)
Min Temperature 27 °F 25 °F 7 °F (2003)
Degree Days  
Heating Degree Days 30 32  
Month to date heating degree days 467  
Since 1 July heating degree days 3459  
Cooling Degree Days 0 0  
Month to date cooling degree days 0  
Year to date cooling degree days 0  
Moisture  
Dew Point 28 °F    
Average Humidity 80    
Maximum Humidity 100    
Minimum Humidity 51    
Precipitation  
Precipitation 0.08 in 0.12 in 1.05 in (2007)
Month to date precipitation 1.52  
Year to date precipitation 5.16  
Snow  
Snow 0.00 in 0.30 in 3.00 in (1996)
Month to date snowfall 3.4  
Since 1 July snowfall 16.0  
Snow Depth -    
Sea Level Pressure  
Sea Level Pressure 29.22 in    
Wind  
Wind Speed 14 mph (WNW)    
Max Wind Speed 26 mph    
Max Gust Speed 40 mph    
Visibility 6 miles    
Events Rain , Snow    
T = Trace of Precipitation, MM = Missing Value Source: NWS Daily Summary

Daily Weather History Graph

Daily Weather History Graph

Search for Another Location

Airport:

Trip Planner

Search our weather history database for the weather conditions in past years. The results will help you decide how hot, cold, wet, or windy it might be!

Date:

Astronomy

Feb. 14, 2014 Rise Set
Actual Time 6:46 AM EST 5:24 PM EST
Civil Twilight 6:18 AM EST 5:53 PM EST
Nautical Twilight 5:46 AM EST 6:25 PM EST
Astronomical Twilight 5:14 AM EST 6:57 PM EST
Moon 5:26 PM EST (2/14) 6:12 AM EST (2/14)
Length of Visible Light 11h 34m
Length of Day
10h 38m
Full, 100% of the Moon is Illuminated
Feb 14
Full
Feb 14
Full
Feb 22
Last Quarter
Mar 1
New
Mar 8
First Quarter

Hourly Weather History & Observations

Time (EST) Temp. Windchill Dew Point Humidity Pressure Visibility Wind Dir Wind Speed Gust Speed Precip Events Conditions
12:39 AM 34.0 °F 27.2 °F 33.1 °F 96% 28.97 in 3.0 mi North 8.1 mph - 0.02 in Rain Light Rain
12:56 AM 34.0 °F 28.0 °F 33.1 °F 96% 28.97 in 3.0 mi North 6.9 mph - 0.03 in   Overcast
1:03 AM 34.0 °F 27.2 °F 33.1 °F 96% 28.96 in 3.0 mi North 8.1 mph - 0.00 in   Overcast
1:27 AM 33.1 °F 28.7 °F 33.1 °F 100% 28.95 in 3.0 mi North 4.6 mph - 0.01 in   Overcast
1:49 AM 33.1 °F 25.5 °F 32.0 °F 96% 28.93 in 2.5 mi NNW 9.2 mph - 0.02 in   Overcast
1:56 AM 33.1 °F 25.5 °F 32.0 °F 96% 28.93 in 2.5 mi NNW 9.2 mph - 0.02 in   Overcast
2:35 AM 33.1 °F 22.6 °F 30.9 °F 92% 28.95 in 3.0 mi NW 16.1 mph - 0.01 in Rain Light Rain
2:56 AM 33.1 °F 23.4 °F 32.0 °F 96% 28.96 in 3.0 mi WNW 13.8 mph - 0.02 in Rain Light Rain
3:18 AM 32.0 °F 21.2 °F 30.0 °F 92% 28.96 in 2.5 mi WNW 16.1 mph - 0.01 in Snow Light Snow
3:27 AM 30.9 °F 18.1 °F 30.0 °F 96% 28.96 in 1.2 mi WNW 21.9 mph 28.8 mph 0.01 in Snow Light Snow
3:52 AM 30.2 °F 17.8 °F 28.4 °F 93% 28.97 in 3.0 mi WNW 19.6 mph 26.5 mph 0.01 in Snow Light Snow
3:56 AM 30.9 °F 18.7 °F 28.0 °F 89% 28.98 in 4.0 mi WNW 19.6 mph 26.5 mph 0.01 in Snow Light Snow
4:09 AM 30.9 °F 19.1 °F 28.0 °F 89% 28.99 in 5.0 mi WNW 18.4 mph 27.6 mph 0.00 in Snow Light Snow
4:14 AM 30.9 °F 19.1 °F 28.0 °F 89% 28.99 in 2.5 mi WNW 18.4 mph 25.3 mph 0.00 in Snow Light Snow
4:41 AM 30.9 °F 18.7 °F 28.0 °F 89% 29.02 in 1.2 mi WNW 19.6 mph 31.1 mph 0.00 in Snow Light Snow
4:56 AM 30.9 °F 19.4 °F 28.9 °F 92% 29.03 in 1.8 mi WNW 17.3 mph 29.9 mph 0.00 in Snow Light Snow
5:02 AM 30.9 °F 19.1 °F 28.9 °F 92% 29.04 in 2.0 mi WNW 18.4 mph 26.5 mph 0.00 in Snow Light Snow
5:14 AM 30.9 °F 20.2 °F 28.9 °F 92% 29.05 in 3.0 mi West 15.0 mph 26.5 mph 0.00 in Snow Light Snow
5:21 AM 32.0 °F 22.1 °F 28.9 °F 88% 29.05 in 5.0 mi West 13.8 mph 23.0 mph 0.00 in Snow Light Snow
5:32 AM 32.0 °F 20.8 °F 30.0 °F 92% 29.06 in 9.0 mi West 17.3 mph 21.9 mph 0.00 in   Overcast
5:41 AM 33.1 °F 21.9 °F 30.0 °F 89% 29.08 in 10.0 mi West 18.4 mph 25.3 mph 0.00 in   Overcast
5:56 AM 33.1 °F 21.9 °F 30.0 °F 89% 29.09 in 6.0 mi West 18.4 mph 26.5 mph 0.00 in Snow Light Snow
6:04 AM 32.0 °F 19.8 °F 30.0 °F 92% 29.10 in 1.8 mi West 20.7 mph 26.5 mph 0.00 in Snow Light Snow
6:33 AM 32.0 °F 20.8 °F 28.9 °F 88% 29.12 in 3.0 mi West 17.3 mph 33.4 mph 0.00 in Snow Light Snow
6:38 AM 32.0 °F 19.2 °F 28.0 °F 85% 29.12 in 5.0 mi West 23.0 mph 31.1 mph 0.00 in Snow Light Snow
6:45 AM 32.0 °F 19.5 °F 28.0 °F 85% 29.13 in 5.0 mi West 21.9 mph 29.9 mph 0.00 in Snow Light Snow
6:56 AM 32.0 °F 19.5 °F 28.0 °F 85% 29.14 in 9.0 mi West 21.9 mph 32.2 mph 0.00 in   Overcast
7:19 AM 30.9 °F 19.1 °F 26.1 °F 82% 29.16 in 9.0 mi West 18.4 mph 33.4 mph 0.00 in   Partly Cloudy
7:56 AM 32.0 °F 20.5 °F 26.1 °F 79% 29.21 in 10.0 mi West 18.4 mph 29.9 mph 0.00 in   Scattered Clouds
8:03 AM 32.0 °F 20.1 °F 26.1 °F 79% 29.20 in 10.0 mi West 19.6 mph 31.1 mph N/A   Mostly Cloudy
8:48 AM 34.0 °F 22.1 °F 26.1 °F 73% 29.23 in 10.0 mi West 21.9 mph 32.2 mph N/A   Scattered Clouds
8:56 AM 35.1 °F 23.5 °F 27.0 °F 72% 29.24 in 9.0 mi WNW 21.9 mph 34.5 mph N/A   Scattered Clouds
9:56 AM 37.0 °F 25.9 °F 28.0 °F 70% 29.29 in 10.0 mi West 23.0 mph 32.2 mph N/A   Scattered Clouds
10:56 AM 39.0 °F 28.0 °F 28.0 °F 65% 29.34 in 10.0 mi West 25.3 mph 34.5 mph N/A   Mostly Cloudy
11:56 AM 39.9 °F 30.5 °F 25.0 °F 55% 29.38 in 10.0 mi West 19.6 mph 35.7 mph N/A   Clear
12:56 PM 39.9 °F 29.0 °F 24.1 °F 53% 29.41 in 10.0 mi West 26.5 mph 40.3 mph N/A   Clear
1:56 PM 39.9 °F 29.5 °F 23.0 °F 51% 29.44 in 10.0 mi West 24.2 mph 34.5 mph N/A   Unknown
2:56 PM 41.0 °F 31.1 °F 24.1 °F 51% 29.48 in 10.0 mi West 23.0 mph 31.1 mph N/A   Partly Cloudy
3:56 PM 39.9 °F 30.0 °F 23.0 °F 51% 29.53 in 10.0 mi West 21.9 mph 34.5 mph N/A   Clear
4:56 PM 39.0 °F 30.6 °F 24.1 °F 55% 29.58 in 10.0 mi West 15.0 mph 21.9 mph N/A   Clear
5:56 PM 37.9 °F 30.5 °F 23.0 °F 55% 29.64 in 10.0 mi WSW 11.5 mph - N/A   Clear
6:56 PM 37.0 °F 29.3 °F 24.1 °F 59% 29.69 in 10.0 mi WSW 11.5 mph - N/A   Clear
7:56 PM 36.0 °F 26.7 °F 25.0 °F 64% 29.76 in 10.0 mi WSW 15.0 mph - N/A   Clear
8:56 PM 36.0 °F 28.5 °F 24.1 °F 62% 29.78 in 10.0 mi West 10.4 mph - N/A   Clear
9:56 PM 35.1 °F 29.3 °F 23.0 °F 61% 29.79 in 10.0 mi WSW 6.9 mph - N/A   Clear
10:56 PM 30.0 °F 26.5 °F 19.9 °F 66% 29.79 in 10.0 mi West 3.5 mph - N/A   Clear
11:56 PM 27.0 °F 23.0 °F 18.0 °F 69% 29.80 in 10.0 mi NW 3.5 mph - N/A   Clear